Location: Shepherdstown, WV
(39.4326°N, 77.8042°W)
Time: 17:02:43
(UTC-04:00)

X-37B - Pass Details

Date: 23 June 2021
Orbit: 383 x 392 km, 45.0° (Epoch: 01 July)

Event Time Altitude Azimuth Distance (km) Brightness Sun altitude
Exits shadow 02:59:37 12° 101° (E) 1,294 3.4 -22.4°
Drops below altitude 10° 02:59:48 11° 101° (E) 1,367 3.5 -22.4°
Sets 03:01:58 0° 106° (ESE) 2,255 4.6 -22.2°
